Terminal Aerodrome Forecast
Issued by NWS Wichita, KS

Home | Current Version | Previous Version | Text Only | Print | Product List | Glossary On
Versions: 1 2 3 4 5 6 7 8 9 10 11 12 13
005
FTUS43 KICT 110716 AAB
TAFICT
TAF AMD
KICT 110716Z 1107/1206 16015G26KT P6SM OVC015
     FM111000 17011KT 4SM BR OVC008
     FM111500 25006KT P6SM OVC015
     FM111700 32010KT P6SM BKN060
     FM111900 35016G25KT P6SM BKN150=

USA.gov is the U.S. government's official web portal to all federal, state and local government web resources and services.